[[{"header":{"parameterUnit":"m.s-1","parameterCategory":1,"la1":30.2991,"la2":30.254,"lo1":-89.0895,"lo2":-89.0444,"dy":0.0017,"dx":0.0017,"nx":28,"ny":28,"refTime":"2025-05-24T21:00:00:Z","depth":0,"parameterNumber":2,"parameterNumberName":"U-component_of_WINDS"},"data":[0,0,0,0,0,0,0,0,0,0,0,0,0,0,0,0,0,0,0,0,0,0,0,0,0,0,0,0,0,0,0,0,0,0,0,0,0,0,0,0,0,0,0,0,0,0,0,0,0,0,0,0,0,0,0,0,0,0,1.8149,1.815,0,1.8217,1.8218,1.8219,1.8194,1.8193,1.8191,1.819,1.8262,1.8266,1.8269,0,0,0,0,0,0,0,0,0,0,0,0,0,1.8,1.8003,1.8149,1.815,1.8151,1.8217,1.8218,1.8219,1.8195,1.8193,1.8191,1.8189,1.8261,1.8265,1.8269,0,0,0,0,0,0,0,0,0,0,0,0,0,1.8066,1.8004,1.8149,1.8147,1.8147,1.8217,1.8218,1.8219,1.8195,1.8193,1.819,1.8188,1.826,1.8265,1.827,1.8347,0,0,1.8285,1.8287,0,0,0,0,0,0,0,0,1.8063,1.8072,1.8146,1.8147,1.8148,1.8195,1.8192,1.8262,1.8196,1.8177,1.819,1.8187,1.8242,1.8248,1.8266,1.835,1.8353,1.8286,1.8289,1.8291,1.8292,0,0,0,0,0,0,0,1.8058,1.8069,1.8176,1.8147,1.8148,1.8143,1.815,1.8205,1.8222,1.8178,1.8177,1.8185,1.8242,1.8261,1.8268,1.8355,1.8286,1.829,1.8293,1.8295,1.8504,1.8506,0,0,0,0,0,0,1.8053,1.8065,1.8174,1.8178,1.8099,1.8147,1.8155,1.8182,1.8221,1.8225,1.8187,1.8184,1.8254,1.8262,1.827,1.8362,1.8291,1.8296,1.8298,1.8501,1.8504,1.8507,0,0,0,0,0,0,1.805,1.8063,1.8171,1.8121,1.8135,1.8152,1.8183,1.8185,1.8204,1.8227,1.823,1.8204,1.8253,1.8263,1.8328,1.8364,1.8298,1.8302,1.8498,1.8502,1.8506,1.8547,0,0,0,0,0,0,1.8046,1.8062,1.8091,1.8122,1.8137,1.8227,1.8185,1.8188,1.8213,1.8209,1.8244,1.8248,1.8252,1.832,1.8333,1.837,1.8306,1.8495,1.85,1.8505,1.8542,1.8551,1.8559,0,0,0,0,0,1.804,1.8101,1.8093,1.8106,1.8174,1.8229,1.8238,1.8241,1.8216,1.8245,1.826,1.8246,1.8358,1.8327,1.8341,1.838,1.8493,1.8499,1.8504,1.8538,1.855,1.8559,0,0,0,0,0,0,1.8075,1.8105,1.8096,1.8168,1.8196,1.8225,1.8262,1.8253,1.8289,1.8284,1.8287,1.8295,1.8361,1.8377,1.8342,1.8456,1.8422,1.8431,1.8443,1.8454,1.8462,1.8457,1.8311,0,0,0,0,0,1.809,1.8132,1.8156,1.8218,1.8232,1.8245,1.8269,1.8268,1.8298,1.831,1.8329,1.8359,1.8401,1.8428,1.8468,1.8544,1.8551,1.8578,1.8587,1.8594,1.8601,1.8642,1.8653,1.8526,1.8526,1.8526,0,0,1.8124,1.8146,1.8172,1.8225,1.8247,1.829,1.8255,1.8303,1.8335,1.8318,1.8379,1.8394,1.8428,1.8498,1.853,1.8513,1.8638,1.8601,1.8606,1.861,1.8649,1.8661,1.8671,1.853,1.8529,1.8528,0,0,1.8207,1.8227,1.828,1.8302,1.8335,1.8342,1.8355,1.8385,1.8394,1.8456,1.8443,1.8482,1.8554,1.8578,1.8599,1.869,1.8678,1.8703,1.8748,1.8787,1.8797,1.8806,1.8837,1.8849,1.871,1.871,1.871,0,1.8244,1.8308,1.8309,1.8357,1.838,1.8365,1.8418,1.844,1.8485,1.8501,1.8482,1.8571,1.8593,1.8668,1.8689,1.8708,1.8722,1.8699,1.8795,1.8804,1.8813,1.8843,1.8854,1.8713,1.8713,1.8712,1.8712,0,1.8352,1.8397,1.8436,1.8477,1.8505,1.8556,1.8564,1.8593,1.8589,1.8599,1.8662,1.8687,1.8731,1.8749,1.8747,1.8823,1.8812,1.8794,1.876,1.8827,1.8855,1.8867,1.8717,1.8716,1.8715,1.8714,0,0,1.8459,1.8499,1.8513,1.8531,1.8566,1.8601,1.865,1.8692,1.8716,1.8747,1.8789,1.8849,1.8832,1.8857,1.8858,1.8892,1.8961,1.887,1.8871,1.8885,1.9046,1.9058,1.9072,1.8954,1.8956,1.8958,1.9043,0,1.8544,1.863,1.8631,1.8711,1.8751,1.8737,1.878,1.8806,1.8817,1.8853,1.8865,1.8908,1.8883,1.8897,1.8931,1.8945,1.8993,1.8939,1.8992,1.8994,1.8984,1.9086,1.91,1.9179,1.9054,1.9056,1.9057,0,1.8654,1.8687,1.877,1.8797,1.8814,1.8853,1.8891,1.8926,1.8955,1.896,1.8987,1.8982,1.9033,1.8997,1.9067,1.903,1.9052,1.9062,1.9065,1.907,1.9029,1.9093,1.9204,1.9216,1.9074,1.9073,1.9072,0,1.8722,1.8788,1.8845,1.8861,1.8895,1.8922,1.8938,1.8964,1.8989,1.9022,1.9038,1.9077,1.9099,1.913,1.9135,1.9109,1.9205,1.917,1.9211,1.9211,1.9232,1.923,1.9347,1.9247,1.9247,1.9247,1.9246,0,1.8816,1.8867,1.8876,1.8911,1.8968,1.8969,1.9026,1.9039,1.9063,1.91,1.9091,1.9127,1.9133,1.917,1.9176,1.9232,1.9242,1.9248,1.9249,1.9248,1.9247,1.9262,1.9257,1.925,1.9249,1.9248,1.9248,0,1.8902,1.891,1.8971,1.8997,1.9005,1.9046,1.9068,1.9102,1.9111,1.9159,1.9171,1.9186,1.9229,1.9238,1.929,1.9293,1.936,1.9356,1.935,1.9349,1.9389,1.9385,1.9519,1.9537,1.9426,1.9427,1.9428,0,1.8961,1.9,1.9029,1.9053,1.907,1.9109,1.9133,1.9136,1.9162,1.9197,1.9227,1.9269,1.9303,1.9373,1.9389,1.9428,1.9424,1.9469,1.943,1.9428,1.9424,1.9421,1.9425,1.9476,1.9477,1.9478,1.9479,0,1.9065,1.9066,1.9101,1.9138,1.9167,1.9196,1.9224,1.9244,1.9251,1.9281,1.9324,1.935,1.9402,1.9444,1.9483,1.9499,1.949,1.9491,1.9502,1.9502,1.9496,1.9499,1.9369,1.9488,1.9487,1.9486,1.9486,1.9485,1.9138,1.9171,1.9197,1.9236,1.9257,1.9283,1.9315,1.9328,1.9364,1.9405,1.9405,1.9453,1.948,1.9531,1.955,1.9587,1.9574,1.959,1.9594,1.9598,1.9601,1.9491,1.9595,1.9595,1.9594,1.9594,1.9594,0,1.924,1.9256,1.9292,1.933,1.9361,1.9348,1.9378,1.9405,1.9446,1.9472,1.9505,1.9554,1.9595,1.9613,1.9653,1.9679,1.9676,1.969,1.9687,1.9691,1.9612,1.9598,1.9691,1.9691,1.9691,1.9691,1.9691,1.9691,1.9297,1.9352,1.9356,1.9421,1.9437,1.9482,1.95,1.9524,1.9544,1.9599,1.9632,1.9643,1.9666,1.9707,1.9744,1.9748,1.9763,1.9778,1.9781,1.9707,1.9697,1.9687,1.9674,1.9782,1.9782,1.9856,1.9857,1.9858]},{"header":{"parameterUnit":"m.s-1","parameterCategory":1,"la1":30.2991,"la2":30.254,"lo1":-89.0895,"lo2":-89.0444,"dy":0.0017,"dx":0.0017,"nx":28,"ny":28,"refTime":"2025-05-24T21:00:00:Z","depth":0,"parameterNumber":3,"parameterNumberName":"V-component_of_WINDS"},"data":[0,0,0,0,0,0,0,0,0,0,0,0,0,0,0,0,0,0,0,0,0,0,0,0,0,0,0,0,0,0,0,0,0,0,0,0,0,0,0,0,0,0,0,0,0,0,0,0,0,0,0,0,0,0,0,0,0,0,3.1162,3.1163,0,3.1303,3.1305,3.1306,3.1322,3.1321,3.132,3.1318,3.1456,3.1461,3.1466,0,0,0,0,0,0,0,0,0,0,0,0,0,3.09,3.0905,3.1162,3.1164,3.1165,3.1303,3.1305,3.1307,3.1323,3.1321,3.1319,3.1318,3.1455,3.1461,3.1467,0,0,0,0,0,0,0,0,0,0,0,0,0,3.1025,3.0907,3.1162,3.119,3.1194,3.1302,3.1305,3.1307,3.1323,3.1321,3.1319,3.1317,3.1453,3.146,3.1467,3.1555,0,0,3.149,3.1493,0,0,0,0,0,0,0,0,3.1018,3.1034,3.1184,3.1188,3.1193,3.1293,3.1263,3.139,3.1324,3.1274,3.1318,3.1316,3.1403,3.1415,3.1446,3.1561,3.1567,3.1491,3.1495,3.1498,3.1501,0,0,0,0,0,0,0,3.1009,3.1028,3.1217,3.1186,3.1192,3.1194,3.1209,3.1287,3.1348,3.1278,3.128,3.1296,3.1405,3.1438,3.1449,3.1569,3.1491,3.1497,3.1502,3.1505,3.1764,3.1766,0,0,0,0,0,0,3.0996,3.1021,3.1213,3.1222,3.1099,3.12,3.1218,3.1263,3.1348,3.1359,3.1298,3.1297,3.1427,3.144,3.1454,3.1562,3.1498,3.1505,3.151,3.1762,3.1764,3.1767,0,0,0,0,0,0,3.099,3.1013,3.1207,3.1122,3.1147,3.1207,3.1258,3.1267,3.13,3.1363,3.1373,3.1321,3.1425,3.1443,3.153,3.1567,3.1509,3.1516,3.1759,3.1762,3.1766,3.178,0,0,0,0,0,0,3.0983,3.1011,3.1046,3.1123,3.1151,3.1283,3.126,3.1271,3.1314,3.1313,3.1387,3.1397,3.1425,3.1519,3.1538,3.1576,3.1521,3.1756,3.176,3.1765,3.1776,3.1783,3.1789,0,0,0,0,0,3.0973,3.1043,3.1048,3.1071,3.1197,3.1285,3.1302,3.1334,3.1317,3.1352,3.1392,3.1395,3.156,3.1528,3.1549,3.159,3.1753,3.1759,3.1764,3.1773,3.1782,3.1789,0,0,0,0,0,0,3.0967,3.1053,3.106,3.1157,3.1214,3.1288,3.1333,3.1342,3.1404,3.1401,3.1437,3.1453,3.1539,3.1573,3.1535,3.168,3.1655,3.1665,3.1654,3.1663,3.167,3.166,3.1528,0,0,0,0,0,3.0977,3.1044,3.1115,3.1193,3.1222,3.1273,3.1312,3.1333,3.1392,3.1416,3.1463,3.1519,3.1583,3.1625,3.1688,3.1781,3.1797,3.182,3.1826,3.1832,3.184,3.1892,3.1903,3.1785,3.1785,3.1785,0,0,3.0998,3.1054,3.1093,3.1193,3.124,3.1306,3.1293,3.1363,3.1413,3.1426,3.1512,3.1548,3.1612,3.1703,3.1745,3.1734,3.1876,3.1839,3.1842,3.1848,3.1898,3.1909,3.1919,3.1789,3.1788,3.1787,0,0,3.107,3.1119,3.1191,3.1238,3.131,3.1344,3.136,3.1434,3.1459,3.1546,3.1558,3.1615,3.1726,3.1772,3.181,3.19,3.1905,3.1919,3.1954,3.2004,3.2013,3.2022,3.2054,3.2065,3.1927,3.1927,3.1927,0,3.1087,3.119,3.1225,3.1297,3.134,3.1358,3.1429,3.1473,3.156,3.1589,3.1576,3.1716,3.176,3.1862,3.1884,3.1914,3.1934,3.1911,3.2009,3.2018,3.2026,3.2058,3.207,3.1928,3.1928,3.1928,3.1928,0,3.1207,3.1277,3.1326,3.1413,3.1462,3.1532,3.1577,3.1622,3.1638,3.1672,3.176,3.1814,3.1889,3.1914,3.1929,3.2018,3.2009,3.2002,3.1978,3.2038,3.2068,3.2081,3.193,3.193,3.1929,3.1929,0,0,3.1279,3.1386,3.1403,3.1443,3.1523,3.1578,3.1648,3.1724,3.1761,3.182,3.188,3.1974,3.1968,3.2011,3.2032,3.2076,3.2144,3.2063,3.2065,3.2077,3.2245,3.225,3.2263,3.2147,3.215,3.2152,3.2239,0,3.1361,3.1491,3.1525,3.1634,3.17,3.1717,3.1779,3.1834,3.1868,3.1926,3.1962,3.2029,3.2016,3.2042,3.2087,3.2126,3.2178,3.212,3.2202,3.2205,3.2186,3.2279,3.2284,3.2364,3.2251,3.2253,3.2255,0,3.1474,3.1539,3.1655,3.1728,3.1757,3.1812,3.1884,3.194,3.2002,3.2024,3.2072,3.2089,3.2161,3.2133,3.2233,3.2193,3.2229,3.2253,3.2257,3.2266,3.2234,3.229,3.2391,3.2403,3.2273,3.2272,3.2271,0,3.1516,3.1631,3.1717,3.175,3.1837,3.1875,3.1912,3.1973,3.2016,3.2078,3.2106,3.2174,3.2212,3.2263,3.2297,3.2274,3.2395,3.2369,3.2413,3.2413,3.2438,3.2436,3.2546,3.246,3.246,3.246,3.2459,0,3.1604,3.1674,3.1737,3.1789,3.1868,3.1906,3.1982,3.202,3.2074,3.2132,3.215,3.2204,3.2246,3.2305,3.2332,3.241,3.2427,3.2445,3.2451,3.2444,3.2442,3.2468,3.2463,3.2463,3.2462,3.2462,3.2461,0,3.1664,3.1708,3.1802,3.1877,3.1898,3.1953,3.2016,3.2067,3.2101,3.2175,3.2194,3.2248,3.2318,3.2358,3.2445,3.2463,3.2551,3.2554,3.2531,3.2534,3.2576,3.2572,3.2706,3.2726,3.2627,3.2628,3.2629,0,3.1717,3.1773,3.1854,3.1896,3.1935,3.2002,3.2047,3.2085,3.2131,3.2206,3.2247,3.2319,3.2379,3.2491,3.2536,3.2604,3.2609,3.2651,3.2619,3.261,3.261,3.2606,3.2612,3.2657,3.2658,3.2658,3.2659,0,3.1808,3.1828,3.1893,3.1966,3.202,3.2078,3.2136,3.2169,3.2216,3.2266,3.234,3.2387,3.2478,3.2549,3.262,3.2656,3.2666,3.2669,3.2683,3.2676,3.266,3.267,3.2547,3.2666,3.2665,3.2664,3.2664,3.2664,3.1867,3.1917,3.1983,3.2055,3.2103,3.2157,3.2209,3.225,3.2313,3.2392,3.2411,3.2488,3.2548,3.2645,3.2683,3.2743,3.2735,3.2755,3.276,3.2765,3.2767,3.2651,3.2756,3.2756,3.2756,3.2756,3.2756,0,3.1958,3.2002,3.2068,3.215,3.2206,3.2212,3.2277,3.2323,3.2392,3.2449,3.2508,3.2592,3.2662,3.2713,3.2783,3.2821,3.2827,3.2838,3.2836,3.2844,3.277,3.2751,3.2833,3.2833,3.2833,3.2833,3.2832,3.2832,3.2013,3.2099,3.2126,3.2235,3.2277,3.2356,3.2392,3.2441,3.2487,3.2582,3.264,3.2674,3.2728,3.2803,3.2866,3.2879,3.2904,3.2915,3.2928,3.2858,3.2849,3.2842,3.2824,3.292,3.292,3.2998,3.2999,3.2999]}]]